Location: Unspecified
(0.0000°N, 0.0000°E)
Time: 16:40:53
(UTC+00:00)

AO-85 - Pass Details

Date: 01 December 2021
Orbit: 521 x 762 km, 64.8° (Epoch: 12 March)

Event Time Altitude Azimuth Distance (km) Brightness Sun altitude
Exits shadow 04:57:47 17° 299° (WNW) 1,622 ? -11.9°
Maximum altitude 05:00:29 29° 249° (WSW) 1,137 ? -11.3°
Drops below altitude 10° 05:04:13 10° 189° (S) 1,909 ? -10.4°
Sets 05:06:36 0° 177° (S) 2,772 ? -9.8°
